Time,TemperatureF,DewpointF,PressureIn,WindDirection,WindDirectionDegrees,WindSpeedMPH,WindSpeedGustMPH,Humidity,HourlyPrecipIn,Conditions,Clouds,dailyrainin,SoftwareType,DateUTC
2015-04-24 00:01:00,53.1,47.4,29.86,WSW,239,0.0,0.0,81,0.00,,---,0.00,VWS V13.01,2015-04-24 07:01:00,
2015-04-24 00:06:00,52.9,47.2,29.86,WSW,239,0.0,0.0,81,0.00,,---,0.00,VWS V13.01,2015-04-24 07:06:00,
2015-04-24 00:11:00,52.8,47.1,29.86,WSW,239,0.0,0.0,81,0.00,,---,0.00,VWS V13.01,2015-04-24 07:11:00,
2015-04-24 00:16:00,52.8,47.1,29.86,WSW,239,0.0,0.0,81,0.00,,---,0.00,VWS V13.01,2015-04-24 07:16:00,
2015-04-24 00:21:00,52.5,47.2,29.86,WSW,239,0.0,0.0,82,0.00,,---,0.00,VWS V13.01,2015-04-24 07:21:00,
2015-04-24 00:26:00,52.3,47.0,29.86,WSW,239,0.0,0.0,82,0.00,,---,0.00,VWS V13.01,2015-04-24 07:26:00,
2015-04-24 00:31:00,52.3,47.3,29.86,WSW,239,0.0,0.0,83,0.00,,---,0.00,VWS V13.01,2015-04-24 07:31:00,
2015-04-24 00:36:00,52.3,47.3,29.86,WSW,239,0.0,0.0,83,0.00,,---,0.00,VWS V13.01,2015-04-24 07:36:00,
2015-04-24 00:41:00,52.3,47.3,29.86,WSW,239,0.0,0.0,83,0.00,,---,0.00,VWS V13.01,2015-04-24 07:41:00,
2015-04-24 00:46:00,52.5,47.5,29.86,WSW,239,0.0,0.0,83,0.00,,---,0.00,VWS V13.01,2015-04-24 07:46:00,
2015-04-24 00:51:00,52.5,47.5,29.86,WSW,239,0.0,0.0,83,0.00,,---,0.00,VWS V13.01,2015-04-24 07:51:00,
2015-04-24 00:56:00,52.5,47.5,29.86,WSW,239,0.0,0.0,83,0.00,,---,0.00,VWS V13.01,2015-04-24 07:56:00,
2015-04-24 01:01:00,52.5,47.5,29.86,WSW,239,0.0,0.0,83,0.00,,---,0.00,VWS V13.01,2015-04-24 08:01:00,
2015-04-24 01:06:00,52.5,47.5,29.86,WSW,239,0.0,0.0,83,0.00,,---,0.00,VWS V13.01,2015-04-24 08:06:00,
2015-04-24 01:11:00,52.5,47.5,29.86,WSW,239,0.0,0.0,83,0.00,,---,0.00,VWS V13.01,2015-04-24 08:11:00,
2015-04-24 01:16:00,52.5,47.5,29.85,WSW,239,0.0,0.0,83,0.00,,---,0.00,VWS V13.01,2015-04-24 08:16:00,
2015-04-24 01:21:00,52.6,47.6,29.85,WSW,239,0.0,0.0,83,0.00,,---,0.00,VWS V13.01,2015-04-24 08:21:00,
2015-04-24 01:26:00,52.6,47.6,29.85,WSW,239,0.0,0.0,83,0.00,,---,0.00,VWS V13.01,2015-04-24 08:26:00,
2015-04-24 01:31:00,52.6,47.6,29.85,WSW,239,0.0,0.0,83,0.00,,---,0.00,VWS V13.01,2015-04-24 08:31:00,
2015-04-24 01:36:00,52.8,47.8,29.85,WSW,239,0.0,0.0,83,0.00,,---,0.00,VWS V13.01,2015-04-24 08:36:00,
2015-04-24 01:41:00,52.8,47.8,29.85,WSW,239,0.0,0.0,83,0.00,,---,0.00,VWS V13.01,2015-04-24 08:41:00,
2015-04-24 01:46:00,52.8,47.8,29.85,WSW,239,0.0,0.0,83,0.00,,---,0.00,VWS V13.01,2015-04-24 08:46:00,
2015-04-24 01:51:00,52.8,47.8,29.85,WSW,239,0.0,0.0,83,0.00,,---,0.00,VWS V13.01,2015-04-24 08:51:00,
2015-04-24 01:56:00,52.9,47.9,29.85,WSW,239,0.0,0.0,83,0.00,,---,0.00,VWS V13.01,2015-04-24 08:56:00,
2015-04-24 02:01:00,52.9,47.9,29.85,WSW,239,0.0,0.0,83,0.00,,---,0.00,VWS V13.01,2015-04-24 09:01:00,
2015-04-24 02:06:00,53.1,48.1,29.85,WSW,239,0.0,0.0,83,0.00,,---,0.00,VWS V13.01,2015-04-24 09:06:00,
2015-04-24 02:11:00,53.1,47.8,29.85,WSW,239,0.0,0.0,82,0.00,,---,0.00,VWS V13.01,2015-04-24 09:11:00,
2015-04-24 02:16:00,53.2,47.9,29.85,WSW,239,0.0,3.0,82,0.00,,---,0.00,VWS V13.01,2015-04-24 09:16:00,
2015-04-24 02:21:00,53.2,47.9,29.85,WSW,239,0.0,3.0,82,0.00,,---,0.00,VWS V13.01,2015-04-24 09:21:00,
2015-04-24 02:26:00,53.2,47.9,29.85,WSW,239,0.0,3.0,82,0.00,,---,0.00,VWS V13.01,2015-04-24 09:26:00,
2015-04-24 02:31:00,53.2,47.9,29.85,WSW,239,0.0,3.0,82,0.00,,---,0.00,VWS V13.01,2015-04-24 09:31:00,
2015-04-24 02:36:00,53.3,48.0,29.85,WSW,239,0.0,0.0,82,0.00,,---,0.00,VWS V13.01,2015-04-24 09:36:00,
2015-04-24 02:41:00,53.3,48.0,29.85,WSW,239,0.0,0.0,82,0.00,,---,0.00,VWS V13.01,2015-04-24 09:41:00,
2015-04-24 02:51:00,53.3,47.6,29.85,WSW,239,0.0,0.0,81,0.00,,---,0.00,VWS V13.01,2015-04-24 09:51:00,
2015-04-24 02:56:00,53.3,47.6,29.85,WSW,239,0.0,0.0,81,0.00,,---,0.00,VWS V13.01,2015-04-24 09:56:00,
2015-04-24 03:01:00,53.3,47.6,29.85,WSW,239,0.0,0.0,81,0.00,,---,0.00,VWS V13.01,2015-04-24 10:01:00,
2015-04-24 03:06:00,53.3,47.6,29.85,WSW,239,0.0,0.0,81,0.00,,---,0.00,VWS V13.01,2015-04-24 10:06:00,
2015-04-24 03:11:00,53.3,47.6,29.85,WSW,239,0.0,0.0,81,0.00,,---,0.00,VWS V13.01,2015-04-24 10:11:00,
2015-04-24 03:16:00,53.3,47.6,29.85,WSW,239,0.0,0.0,81,0.00,,---,0.00,VWS V13.01,2015-04-24 10:16:00,
2015-04-24 03:21:00,53.3,47.6,29.84,WSW,239,0.0,0.0,81,0.00,,---,0.00,VWS V13.01,2015-04-24 10:21:00,
2015-04-24 03:26:00,53.3,47.6,29.84,WSW,239,0.0,0.0,81,0.00,,---,0.00,VWS V13.01,2015-04-24 10:26:00,
2015-04-24 03:31:00,53.3,47.6,29.84,WSW,239,0.0,0.0,81,0.00,,---,0.00,VWS V13.01,2015-04-24 10:31:00,
2015-04-24 03:36:00,53.3,47.6,29.84,WSW,239,0.0,0.0,81,0.00,,---,0.00,VWS V13.01,2015-04-24 10:36:00,
2015-04-24 03:41:00,53.3,47.6,29.84,WSW,239,0.0,0.0,81,0.00,,---,0.00,VWS V13.01,2015-04-24 10:41:00,
2015-04-24 03:46:00,53.3,47.6,29.84,WSW,239,0.0,0.0,81,0.00,,---,0.00,VWS V13.01,2015-04-24 10:46:00,
2015-04-24 03:51:00,53.3,47.6,29.84,WSW,239,0.0,0.0,81,0.00,,---,0.00,VWS V13.01,2015-04-24 10:51:00,
2015-04-24 03:56:00,53.3,47.6,29.84,WSW,239,0.0,0.0,81,0.00,,---,0.00,VWS V13.01,2015-04-24 10:56:00,
2015-04-24 04:01:00,53.3,47.6,29.84,WSW,239,0.0,0.0,81,0.00,,---,0.00,VWS V13.01,2015-04-24 11:01:00,
2015-04-24 04:06:00,53.3,47.3,29.84,WSW,239,0.0,0.0,80,0.00,,---,0.00,VWS V13.01,2015-04-24 11:06:00,
2015-04-24 04:11:00,53.3,47.6,29.84,WSW,239,0.0,0.0,81,0.00,,---,0.00,VWS V13.01,2015-04-24 11:11:00,
2015-04-24 04:16:00,53.3,47.3,29.84,WSW,239,0.0,0.0,80,0.00,,---,0.00,VWS V13.01,2015-04-24 11:16:00,
2015-04-24 04:21:00,53.3,47.3,29.84,WSW,239,0.0,0.0,80,0.00,,---,0.00,VWS V13.01,2015-04-24 11:21:00,
2015-04-24 04:26:00,53.3,47.3,29.84,WSW,239,0.0,0.0,80,0.00,,---,0.00,VWS V13.01,2015-04-24 11:26:00,
2015-04-24 04:31:00,53.3,47.3,29.84,WSW,239,0.0,0.0,80,0.00,,---,0.00,VWS V13.01,2015-04-24 11:31:00,
2015-04-24 04:36:00,53.5,47.5,29.84,WSW,239,0.0,0.0,80,0.00,,---,0.00,VWS V13.01,2015-04-24 11:36:00,
2015-04-24 04:41:00,53.5,47.5,29.84,WSW,239,0.0,0.0,80,0.00,,---,0.00,VWS V13.01,2015-04-24 11:41:00,
2015-04-24 04:46:00,53.5,47.8,29.84,WSW,239,0.0,0.0,81,0.00,,---,0.00,VWS V13.01,2015-04-24 11:46:00,
2015-04-24 04:51:00,53.5,47.8,29.84,WSW,239,0.0,0.0,81,0.00,,---,0.00,VWS V13.01,2015-04-24 11:51:00,
2015-04-24 04:56:00,53.5,47.8,29.84,WSW,239,0.0,0.0,81,0.00,,---,0.00,VWS V13.01,2015-04-24 11:56:00,
2015-04-24 05:01:00,53.5,47.5,29.84,WSW,239,0.0,0.0,80,0.00,,---,0.00,VWS V13.01,2015-04-24 12:01:00,
2015-04-24 05:06:00,53.5,47.8,29.84,WSW,239,0.0,0.0,81,0.00,,---,0.00,VWS V13.01,2015-04-24 12:06:00,
2015-04-24 05:11:00,53.5,47.8,29.84,WSW,239,0.0,0.0,81,0.00,,---,0.00,VWS V13.01,2015-04-24 12:11:00,
2015-04-24 05:16:00,53.5,47.8,29.84,WSW,239,0.0,0.0,81,0.00,,---,0.00,VWS V13.01,2015-04-24 12:16:00,
2015-04-24 05:21:00,53.5,47.8,29.85,WSW,239,0.0,0.0,81,0.00,,---,0.00,VWS V13.01,2015-04-24 12:21:00,
2015-04-24 05:26:00,53.5,47.8,29.85,WSW,239,0.0,0.0,81,0.00,,---,0.00,VWS V13.01,2015-04-24 12:26:00,
2015-04-24 05:31:00,53.5,47.5,29.85,WSW,239,0.0,0.0,80,0.00,,---,0.00,VWS V13.01,2015-04-24 12:31:00,
2015-04-24 05:36:00,53.5,47.5,29.85,WSW,239,0.0,0.0,80,0.00,,---,0.00,VWS V13.01,2015-04-24 12:36:00,
2015-04-24 05:41:00,53.5,47.5,29.85,WSW,239,0.0,3.0,80,0.00,,---,0.00,VWS V13.01,2015-04-24 12:41:00,
2015-04-24 05:46:00,53.5,47.5,29.85,WSW,239,0.0,3.0,80,0.00,,---,0.00,VWS V13.01,2015-04-24 12:46:00,
2015-04-24 05:51:00,53.3,47.3,29.86,WSW,239,0.0,3.0,80,0.00,,---,0.00,VWS V13.01,2015-04-24 12:51:00,
2015-04-24 05:56:00,53.2,47.2,29.86,WSW,239,0.0,3.0,80,0.00,,---,0.00,VWS V13.01,2015-04-24 12:56:00,
2015-04-24 06:01:00,53.2,47.2,29.86,WSW,239,1.0,3.0,80,0.00,,---,0.00,VWS V13.01,2015-04-24 13:01:00,
2015-04-24 06:06:00,53.1,47.1,29.86,WSW,254,0.0,3.0,80,0.00,,---,0.00,VWS V13.01,2015-04-24 13:06:00,
2015-04-24 06:11:00,53.1,47.1,29.86,WSW,254,0.0,3.0,80,0.00,,---,0.00,VWS V13.01,2015-04-24 13:11:00,
2015-04-24 06:16:00,53.1,47.1,29.86,WSW,258,0.0,3.0,80,0.00,,---,0.00,VWS V13.01,2015-04-24 13:16:00,
2015-04-24 06:21:00,52.9,46.9,29.86,WSW,258,0.0,3.0,80,0.00,,---,0.00,VWS V13.01,2015-04-24 13:21:00,
2015-04-24 06:26:00,53.1,47.1,29.86,WSW,258,0.0,3.0,80,0.00,,---,0.00,VWS V13.01,2015-04-24 13:26:00,
2015-04-24 06:31:00,53.1,47.1,29.86,WSW,258,0.0,3.0,80,0.00,,---,0.00,VWS V13.01,2015-04-24 13:31:00,
2015-04-24 06:36:00,53.1,47.1,29.86,WSW,258,0.0,1.0,80,0.00,,---,0.00,VWS V13.01,2015-04-24 13:36:00,
2015-04-24 06:41:00,53.1,47.4,29.86,WSW,258,0.0,1.0,81,0.00,,---,0.00,VWS V13.01,2015-04-24 13:41:00,
2015-04-24 06:46:00,53.2,47.5,29.86,WSW,258,0.0,2.0,81,0.00,,---,0.00,VWS V13.01,2015-04-24 13:46:00,
2015-04-24 06:51:00,53.2,47.2,29.86,WSW,258,0.0,2.0,80,0.00,,---,0.00,VWS V13.01,2015-04-24 13:51:00,
2015-04-24 06:56:00,53.3,47.3,29.86,WSW,258,0.0,2.0,80,0.00,,---,0.00,VWS V13.01,2015-04-24 13:56:00,
2015-04-24 07:01:00,53.3,47.3,29.86,WSW,258,0.0,2.0,80,0.00,,---,0.00,VWS V13.01,2015-04-24 14:01:00,
2015-04-24 07:06:00,53.5,47.5,29.87,WSW,258,0.0,0.0,80,0.00,,---,0.00,VWS V13.01,2015-04-24 14:06:00,
2015-04-24 07:11:00,53.5,47.5,29.87,WSW,258,0.0,0.0,80,0.00,,---,0.00,VWS V13.01,2015-04-24 14:11:00,
2015-04-24 07:16:00,53.5,47.8,29.87,WSW,258,0.0,0.0,81,0.00,,---,0.00,VWS V13.01,2015-04-24 14:16:00,
2015-04-24 07:21:00,53.6,47.6,29.88,WSW,258,0.0,3.0,80,0.00,,---,0.00,VWS V13.01,2015-04-24 14:21:00,
2015-04-24 07:26:00,53.6,47.6,29.88,WSW,258,0.0,3.0,80,0.00,,---,0.00,VWS V13.01,2015-04-24 14:26:00,
2015-04-24 07:31:00,53.8,47.8,29.88,WSW,258,1.0,3.0,80,0.00,,---,0.00,VWS V13.01,2015-04-24 14:31:00,
2015-04-24 07:36:00,53.9,47.9,29.88,WSW,258,0.0,2.0,80,0.00,,---,0.00,VWS V13.01,2015-04-24 14:36:00,
2015-04-24 07:41:00,54.1,47.7,29.88,WSW,258,0.0,3.0,79,0.00,,---,0.00,VWS V13.01,2015-04-24 14:41:00,
2015-04-24 07:46:00,54.2,47.8,29.88,WSW,258,0.0,3.0,79,0.00,,---,0.00,VWS V13.01,2015-04-24 14:46:00,
2015-04-24 07:51:00,54.5,48.1,29.89,WSW,258,0.0,3.0,79,0.00,,---,0.00,VWS V13.01,2015-04-24 14:51:00,
2015-04-24 07:56:00,54.8,48.1,29.89,WSW,258,0.0,3.0,78,0.00,,---,0.00,VWS V13.01,2015-04-24 14:56:00,
2015-04-24 08:01:00,55.3,48.2,29.89,WSW,258,0.0,3.0,77,0.00,,---,0.00,VWS V13.01,2015-04-24 15:01:00,
2015-04-24 08:06:00,55.7,48.3,29.88,WSW,258,0.0,0.0,76,0.00,,---,0.00,VWS V13.01,2015-04-24 15:06:00,
2015-04-24 08:11:00,56.3,48.5,29.88,WSW,258,0.0,0.0,75,0.00,,---,0.00,VWS V13.01,2015-04-24 15:11:00,
2015-04-24 08:16:00,56.9,48.7,29.88,WSW,258,0.0,0.0,74,0.00,,---,0.00,VWS V13.01,2015-04-24 15:16:00,
2015-04-24 08:21:00,57.6,49.0,29.88,WSW,258,0.0,0.0,73,0.00,,---,0.00,VWS V13.01,2015-04-24 15:21:00,
2015-04-24 08:26:00,58.3,48.2,29.88,WSW,258,0.0,0.0,69,0.00,,---,0.00,VWS V13.01,2015-04-24 15:26:00,
2015-04-24 08:31:00,59.0,48.9,29.88,ENE,78,0.0,0.0,69,0.00,,---,0.00,VWS V13.01,2015-04-24 15:31:00,
2015-04-24 08:36:00,59.9,48.9,29.88,East,96,0.0,2.0,67,0.00,,---,0.00,VWS V13.01,2015-04-24 15:36:00,
2015-04-24 08:41:00,60.7,48.0,29.88,ENE,66,0.0,5.0,63,0.00,,---,0.00,VWS V13.01,2015-04-24 15:41:00,
2015-04-24 08:46:00,61.3,48.6,29.88,ESE,114,0.0,5.0,63,0.00,,---,0.00,VWS V13.01,2015-04-24 15:46:00,
2015-04-24 08:51:00,61.8,48.7,29.88,ESE,121,0.0,5.0,62,0.00,,---,0.00,VWS V13.01,2015-04-24 15:51:00,
2015-04-24 08:56:00,62.0,48.8,29.88,ESE,116,0.0,5.0,62,0.00,,---,0.00,VWS V13.01,2015-04-24 15:56:00,
2015-04-24 09:01:00,61.8,48.2,29.88,SSE,150,0.0,5.0,61,0.00,,---,0.00,VWS V13.01,2015-04-24 16:01:00,
2015-04-24 09:06:00,61.3,48.2,29.89,SE,137,0.0,4.0,62,0.00,,---,0.00,VWS V13.01,2015-04-24 16:06:00,
2015-04-24 09:11:00,61.0,48.3,29.89,SSE,148,0.0,4.0,63,0.00,,---,0.00,VWS V13.01,2015-04-24 16:11:00,
2015-04-24 09:16:00,60.9,48.2,29.89,SE,141,0.0,4.0,63,0.00,,---,0.00,VWS V13.01,2015-04-24 16:16:00,
2015-04-24 09:21:00,60.9,48.7,29.90,ESE,123,0.0,4.0,64,0.00,,---,0.00,VWS V13.01,2015-04-24 16:21:00,
2015-04-24 09:26:00,60.7,48.5,29.90,ESE,123,0.0,4.0,64,0.00,,---,0.00,VWS V13.01,2015-04-24 16:26:00,
2015-04-24 09:31:00,60.7,48.5,29.90,ESE,123,0.0,4.0,64,0.00,,---,0.00,VWS V13.01,2015-04-24 16:31:00,
2015-04-24 09:36:00,60.7,48.5,29.91,ESE,112,0.0,2.0,64,0.00,,---,0.00,VWS V13.01,2015-04-24 16:36:00,
2015-04-24 09:41:00,60.5,48.3,29.91,ESE,112,0.0,2.0,64,0.00,,---,0.00,VWS V13.01,2015-04-24 16:41:00,
2015-04-24 09:46:00,60.5,47.9,29.91,ESE,112,0.0,2.0,63,0.00,,---,0.00,VWS V13.01,2015-04-24 16:46:00,
2015-04-24 09:51:00,60.4,48.2,29.91,ESE,112,0.0,2.0,64,0.00,,---,0.00,VWS V13.01,2015-04-24 16:51:00,
2015-04-24 09:56:00,60.2,48.0,29.91,WSW,246,0.0,2.0,64,0.00,,---,0.00,VWS V13.01,2015-04-24 16:56:00,
2015-04-24 10:01:00,60.4,48.6,29.91,NE,35,0.0,2.0,65,0.00,,---,0.00,VWS V13.01,2015-04-24 17:01:00,
2015-04-24 10:06:00,60.5,48.3,29.91,East,93,0.0,3.0,64,0.00,,---,0.00,VWS V13.01,2015-04-24 17:06:00,
2015-04-24 10:11:00,60.7,48.5,29.91,ESE,116,2.0,5.0,64,0.00,,---,0.00,VWS V13.01,2015-04-24 17:11:00,
2015-04-24 10:16:00,60.7,48.0,29.91,SE,145,0.0,5.0,63,0.00,,---,0.00,VWS V13.01,2015-04-24 17:16:00,
2015-04-24 10:21:00,60.7,48.0,29.92,SE,131,0.0,5.0,63,0.00,,---,0.00,VWS V13.01,2015-04-24 17:21:00,
2015-04-24 10:26:00,60.7,48.0,29.92,SE,128,0.0,5.0,63,0.00,,---,0.00,VWS V13.01,2015-04-24 17:26:00,
2015-04-24 10:31:00,60.7,48.5,29.92,SE,128,0.0,5.0,64,0.00,,---,0.00,VWS V13.01,2015-04-24 17:31:00,
2015-04-24 10:36:00,60.5,48.3,29.93,ESE,114,0.0,3.0,64,0.00,,---,0.00,VWS V13.01,2015-04-24 17:36:00,
2015-04-24 10:41:00,60.2,48.0,29.93,ESE,110,0.0,3.0,64,0.00,,---,0.00,VWS V13.01,2015-04-24 17:41:00,
2015-04-24 10:46:00,60.1,47.9,29.93,SSE,150,0.0,3.0,64,0.00,,---,0.00,VWS V13.01,2015-04-24 17:46:00,
2015-04-24 10:51:00,59.9,47.7,29.93,ESE,119,0.0,3.0,64,0.00,,---,0.00,VWS V13.01,2015-04-24 17:51:00,
2015-04-24 10:56:00,59.9,48.1,29.93,NE,37,0.0,3.0,65,0.00,,---,0.00,VWS V13.01,2015-04-24 17:56:00,
2015-04-24 11:01:00,60.1,48.3,29.93,East,99,0.0,3.0,65,0.00,,---,0.00,VWS V13.01,2015-04-24 18:01:00,
2015-04-24 11:06:00,60.1,47.9,29.93,East,99,0.0,0.0,64,0.00,,---,0.00,VWS V13.01,2015-04-24 18:06:00,
2015-04-24 11:11:00,60.1,48.3,29.93,East,99,0.0,1.0,65,0.00,,---,0.00,VWS V13.01,2015-04-24 18:11:00,
2015-04-24 11:16:00,60.2,48.4,29.93,ESE,107,0.0,1.0,65,0.00,,---,0.00,VWS V13.01,2015-04-24 18:16:00,
2015-04-24 11:21:00,60.4,48.6,29.93,ESE,106,0.0,1.0,65,0.00,,---,0.00,VWS V13.01,2015-04-24 18:21:00,
2015-04-24 11:26:00,60.5,48.3,29.93,WSW,251,7.0,7.0,64,0.00,,---,0.00,VWS V13.01,2015-04-24 18:26:00,
2015-04-24 11:31:00,60.2,48.0,29.93,WSW,253,0.0,7.0,64,0.00,,---,0.00,VWS V13.01,2015-04-24 18:31:00,
2015-04-24 11:36:00,60.5,48.7,29.93,WSW,248,0.0,0.0,65,0.00,,---,0.00,VWS V13.01,2015-04-24 18:36:00,
2015-04-24 11:41:00,60.7,48.9,29.93,WSW,248,0.0,0.0,65,0.00,,---,0.00,VWS V13.01,2015-04-24 18:41:00,
2015-04-24 11:45:00,60.7,48.5,29.93,WSW,248,2.0,3.0,64,0.00,,---,0.00,VWS V13.01,2015-04-24 18:45:00,
2015-04-24 11:50:00,60.5,48.7,29.93,ESE,119,3.0,3.0,65,0.00,,---,0.00,VWS V13.01,2015-04-24 18:50:00,
2015-04-24 11:55:00,60.5,48.7,29.93,SE,131,0.0,3.0,65,0.00,,---,0.00,VWS V13.01,2015-04-24 18:55:00,
2015-04-24 12:00:00,60.7,48.9,29.93,SE,134,0.0,3.0,65,0.00,,---,0.00,VWS V13.01,2015-04-24 19:00:00,
2015-04-24 12:05:00,60.9,49.1,29.92,SE,134,0.0,0.0,65,0.00,,---,0.00,VWS V13.01,2015-04-24 19:05:00,
2015-04-24 12:10:00,61.0,49.2,29.92,SE,134,0.0,0.0,65,0.00,,---,0.00,VWS V13.01,2015-04-24 19:10:00,
2015-04-24 12:15:00,61.2,49.3,29.92,SE,134,0.0,0.0,65,0.00,,---,0.00,VWS V13.01,2015-04-24 19:15:00,
2015-04-24 12:25:00,61.5,49.2,29.92,SE,136,0.0,3.0,64,0.00,,---,0.00,VWS V13.01,2015-04-24 19:25:00,
2015-04-24 12:30:00,61.6,49.3,29.92,ESE,119,0.0,3.0,64,0.00,,---,0.00,VWS V13.01,2015-04-24 19:30:00,
2015-04-24 12:35:00,61.8,49.5,29.91,ESE,116,0.0,1.0,64,0.00,,---,0.00,VWS V13.01,2015-04-24 19:35:00,
2015-04-24 12:40:00,61.8,49.1,29.91,ESE,116,0.0,1.0,63,0.00,,---,0.00,VWS V13.01,2015-04-24 19:40:00,
2015-04-24 12:45:00,62.0,49.3,29.91,East,86,0.0,3.0,63,0.00,,---,0.00,VWS V13.01,2015-04-24 19:45:00,
2015-04-24 12:50:00,61.8,49.5,29.91,East,86,0.0,3.0,64,0.00,,---,0.00,VWS V13.01,2015-04-24 19:50:00,
2015-04-24 12:55:00,61.8,49.5,29.91,East,86,0.0,3.0,64,0.00,,---,0.00,VWS V13.01,2015-04-24 19:55:00,
2015-04-24 13:00:00,61.6,49.3,29.91,West,260,0.0,3.0,64,0.00,,---,0.00,VWS V13.01,2015-04-24 20:00:00,
2015-04-24 13:05:00,61.6,49.7,29.91,West,260,0.0,0.0,65,0.00,,---,0.00,VWS V13.01,2015-04-24 20:05:00,
2015-04-24 13:10:00,61.6,49.3,29.91,West,260,0.0,0.0,64,0.00,,---,0.00,VWS V13.01,2015-04-24 20:10:00,
2015-04-24 13:15:00,61.5,49.2,29.91,West,260,0.0,1.0,64,0.00,,---,0.00,VWS V13.01,2015-04-24 20:15:00,
2015-04-24 13:20:00,61.5,49.6,29.91,West,260,0.0,1.0,65,0.00,,---,0.00,VWS V13.01,2015-04-24 20:20:00,
2015-04-24 13:25:00,61.2,48.9,29.91,West,261,0.0,6.0,64,0.00,,---,0.00,VWS V13.01,2015-04-24 20:25:00,
2015-04-24 13:30:00,60.9,49.1,29.91,WSW,258,3.0,6.0,65,0.00,,---,0.00,VWS V13.01,2015-04-24 20:30:00,
2015-04-24 13:35:00,60.9,49.5,29.91,West,261,0.0,1.0,66,0.00,,---,0.00,VWS V13.01,2015-04-24 20:35:00,
2015-04-24 13:40:00,60.9,49.1,29.91,WSW,246,0.0,1.0,65,0.00,,---,0.00,VWS V13.01,2015-04-24 20:40:00,
2015-04-24 13:45:00,61.0,49.2,29.91,WSW,254,0.0,5.0,65,0.00,,---,0.00,VWS V13.01,2015-04-24 20:45:00,
2015-04-24 13:50:00,61.0,49.2,29.91,WSW,256,0.0,5.0,65,0.00,,---,0.00,VWS V13.01,2015-04-24 20:50:00,
2015-04-24 13:55:00,60.9,49.1,29.91,WSW,248,5.0,5.0,65,0.00,,---,0.00,VWS V13.01,2015-04-24 20:55:00,
2015-04-24 14:00:00,61.0,49.2,29.91,West,263,2.0,6.0,65,0.00,,---,0.00,VWS V13.01,2015-04-24 21:00:00,
2015-04-24 14:05:00,61.2,48.9,29.90,WSW,256,0.0,8.0,64,0.00,,---,0.00,VWS V13.01,2015-04-24 21:05:00,
2015-04-24 14:10:00,61.2,48.9,29.90,WSW,241,2.0,8.0,64,0.00,,---,0.00,VWS V13.01,2015-04-24 21:10:00,
2015-04-24 14:15:00,61.2,48.9,29.90,WSW,258,1.0,11.0,64,0.00,,---,0.00,VWS V13.01,2015-04-24 21:15:00,
2015-04-24 14:20:00,61.2,48.9,29.90,WSW,241,0.0,11.0,64,0.00,,---,0.00,VWS V13.01,2015-04-24 21:20:00,
2015-04-24 14:25:00,61.3,49.0,29.90,West,270,0.0,11.0,64,0.00,,---,0.00,VWS V13.01,2015-04-24 21:25:00,
2015-04-24 14:30:00,61.2,48.5,29.90,West,260,0.0,11.0,63,0.00,,---,0.00,VWS V13.01,2015-04-24 21:30:00,
2015-04-24 14:35:00,61.2,48.9,29.91,WSW,258,1.0,3.0,64,0.00,,---,0.00,VWS V13.01,2015-04-24 21:35:00,
2015-04-24 14:40:00,61.0,49.2,29.91,West,265,0.0,5.0,65,0.00,,---,0.00,VWS V13.01,2015-04-24 21:40:00,
2015-04-24 14:45:00,61.2,49.3,29.91,NNW,343,0.0,5.0,65,0.00,,---,0.00,VWS V13.01,2015-04-24 21:45:00,
2015-04-24 14:50:00,61.0,49.2,29.90,West,260,0.0,5.0,65,0.00,,---,0.00,VWS V13.01,2015-04-24 21:50:00,
2015-04-24 14:55:00,60.9,48.7,29.90,West,261,0.0,5.0,64,0.00,,---,0.00,VWS V13.01,2015-04-24 21:55:00,
2015-04-24 15:00:00,60.7,48.5,29.90,WSW,241,3.0,5.0,64,0.00,,---,0.00,VWS V13.01,2015-04-24 22:00:00,
2015-04-24 15:05:00,60.7,48.9,29.90,WSW,247,0.0,0.0,65,0.00,,---,0.00,VWS V13.01,2015-04-24 22:05:00,
2015-04-24 15:10:00,60.9,49.1,29.90,WSW,254,0.0,6.0,65,0.00,,---,0.00,VWS V13.01,2015-04-24 22:10:00,
2015-04-24 15:15:00,60.9,48.7,29.90,WSW,240,8.0,8.0,64,0.00,,---,0.00,VWS V13.01,2015-04-24 22:15:00,
2015-04-24 15:20:00,60.7,48.5,29.90,West,260,2.0,8.0,64,0.00,,---,0.00,VWS V13.01,2015-04-24 22:20:00,
2015-04-24 15:25:00,60.7,48.5,29.90,WSW,257,0.0,8.0,64,0.00,,---,0.00,VWS V13.01,2015-04-24 22:25:00,
2015-04-24 15:30:00,60.7,48.9,29.90,West,265,0.0,8.0,65,0.00,,---,0.00,VWS V13.01,2015-04-24 22:30:00,
2015-04-24 15:35:00,60.7,48.9,29.89,WSW,258,0.0,5.0,65,0.00,,---,0.00,VWS V13.01,2015-04-24 22:35:00,
2015-04-24 15:40:00,60.5,48.3,29.89,WSW,250,2.0,7.0,64,0.00,,---,0.00,VWS V13.01,2015-04-24 22:40:00,
2015-04-24 15:45:00,60.5,48.7,29.89,West,260,0.0,7.0,65,0.00,,---,0.00,VWS V13.01,2015-04-24 22:45:00,
2015-04-24 15:50:00,60.4,48.2,29.89,WSW,254,2.0,7.0,64,0.00,,---,0.00,VWS V13.01,2015-04-24 22:50:00,
2015-04-24 15:55:00,60.4,48.2,29.89,West,272,2.0,7.0,64,0.00,,---,0.00,VWS V13.01,2015-04-24 22:55:00,
2015-04-24 16:00:00,60.4,48.2,29.89,WSW,253,1.0,7.0,64,0.00,,---,0.00,VWS V13.01,2015-04-24 23:00:00,
2015-04-24 16:05:00,60.5,48.7,29.90,WSW,247,0.0,5.0,65,0.00,,---,0.00,VWS V13.01,2015-04-24 23:05:00,
2015-04-24 16:10:00,60.5,48.3,29.90,WSW,253,0.0,5.0,64,0.00,,---,0.00,VWS V13.01,2015-04-24 23:10:00,
2015-04-24 16:15:00,60.7,48.0,29.90,SW,234,0.0,5.0,63,0.00,,---,0.00,VWS V13.01,2015-04-24 23:15:00,
2015-04-24 16:20:00,60.7,48.0,29.89,WSW,250,0.0,6.0,63,0.00,,---,0.00,VWS V13.01,2015-04-24 23:20:00,
2015-04-24 16:25:00,60.7,48.5,29.89,WSW,253,0.0,6.0,64,0.00,,---,0.00,VWS V13.01,2015-04-24 23:25:00,
2015-04-24 16:30:00,60.7,48.0,29.89,WSW,254,2.0,7.0,63,0.00,,---,0.00,VWS V13.01,2015-04-24 23:30:00,
2015-04-24 16:35:00,60.7,48.5,29.89,WSW,254,0.0,2.0,64,0.00,,---,0.00,VWS V13.01,2015-04-24 23:35:00,
2015-04-24 16:40:00,60.5,48.3,29.89,WSW,254,0.0,3.0,64,0.00,,---,0.00,VWS V13.01,2015-04-24 23:40:00,
2015-04-24 16:45:00,60.5,48.3,29.89,WSW,254,0.0,3.0,64,0.00,,---,0.00,VWS V13.01,2015-04-24 23:45:00,
2015-04-24 16:50:00,60.5,48.3,29.89,WSW,254,0.0,3.0,64,0.00,,---,0.00,VWS V13.01,2015-04-24 23:50:00,
2015-04-24 16:55:00,60.5,48.7,29.89,WSW,254,0.0,3.0,65,0.00,,---,0.00,VWS V13.01,2015-04-24 23:55:00,
2015-04-24 17:00:00,60.4,48.2,29.89,WSW,253,0.0,5.0,64,0.00,,---,0.00,VWS V13.01,2015-04-25 00:00:00,
2015-04-24 17:05:00,60.4,48.2,29.89,WSW,253,0.0,5.0,64,0.00,,---,0.00,VWS V13.01,2015-04-25 00:05:00,
2015-04-24 17:10:00,60.2,48.0,29.89,West,267,0.0,5.0,64,0.00,,---,0.00,VWS V13.01,2015-04-25 00:10:00,
2015-04-24 17:15:00,60.2,48.0,29.89,West,267,0.0,5.0,64,0.00,,---,0.00,VWS V13.01,2015-04-25 00:15:00,
2015-04-24 17:20:00,60.2,48.4,29.90,West,267,0.0,5.0,65,0.00,,---,0.00,VWS V13.01,2015-04-25 00:20:00,
2015-04-24 17:25:00,60.2,48.0,29.90,West,267,0.0,5.0,64,0.00,,---,0.00,VWS V13.01,2015-04-25 00:25:00,
2015-04-24 17:30:00,60.2,48.0,29.90,West,267,0.0,5.0,64,0.00,,---,0.00,VWS V13.01,2015-04-25 00:30:00,
2015-04-24 17:35:00,60.2,48.0,29.90,WSW,258,0.0,5.0,64,0.00,,---,0.00,VWS V13.01,2015-04-25 00:35:00,
2015-04-24 17:40:00,60.1,48.3,29.90,WSW,257,3.0,5.0,65,0.00,,---,0.00,VWS V13.01,2015-04-25 00:40:00,
2015-04-24 17:45:00,60.1,47.9,29.90,WSW,256,0.0,5.0,64,0.00,,---,0.00,VWS V13.01,2015-04-25 00:45:00,